Location: Unspecified
(48.7670°N, 0.0000°E)
Time: 11:01:32
(UTC+00:00)

UNISAT 6 - Visible Passes

Search period start: 19 July 2019 00:00
Search period end: 29 July 2019 00:00
Orbit: 607 x 689 km, 97.8° (Epoch: 19 July)

Date Brightness Start Highest point End Pass type
(mag) Time Alt. Az. Time Alt. Az. Time Alt. Az.
19 Jul ? 20:33:14 10° NNE 20:37:40 45° E 20:42:07 10° S visible
19 Jul ? 22:10:23 10° N 22:14:08 25° WNW 22:17:56 10° WSW visible
20 Jul ? 20:59:07 10° NNE 21:03:45 79° ESE 21:08:25 10° S visible
20 Jul ? 22:37:07 10° NNW 22:39:53 16° WNW 22:42:40 10° W visible
21 Jul ? 21:25:11 10° N 21:29:45 60° WNW 21:34:21 10° SSW visible
22 Jul ? 21:51:26 10° N 21:55:39 36° WNW 21:59:54 10° SW visible
23 Jul ? 20:40:32 10° NNE 20:45:05 53° E 20:49:41 10° S visible
23 Jul ? 22:17:55 10° NNW 22:21:28 22° WNW 22:25:02 10° WSW visible
24 Jul ? 21:06:29 10° NNE 21:11:09 88° WNW 21:15:51 10° SSW visible
24 Jul ? 22:44:49 10° NNW 22:47:11 14° WNW 22:49:33 10° W visible
25 Jul ? 21:32:36 10° N 21:37:08 51° WNW 21:41:40 10° SW visible
26 Jul ? 20:22:04 10° NNE 20:26:24 36° E 20:30:43 10° SSE visible
26 Jul ? 21:58:55 10° N 22:03:00 31° WNW 22:07:06 10° SW visible
27 Jul ? 20:47:52 10° NNE 20:52:32 63° ESE 20:57:11 10° S visible
27 Jul ? 22:25:29 10° NNW 22:28:47 19° WNW 22:32:06 10° WSW visible
28 Jul ? 21:13:52 10° N 21:18:34 76° WNW 21:23:15 10° SSW visible
28 Jul ? 22:52:37 10° NNW 22:54:28 12° NW 22:56:19 10° WNW visible
